Location: Bartlow
(52.0833°N, 0.3167°E)
Time: 11:30:43
(UTC+00:00)

SL-08 R/B - Pass Details

Date: 26 September 2023
Orbit: 670 x 736 km, 98.5° (Epoch: 28 November)

Event Time Altitude Azimuth Distance (km) Brightness Sun altitude
Rises 05:02:38 0° 166° (SSE) 3,059 6.7 -8.2°
Reaches altitude 10° 05:04:51 10° 167° (SSE) 2,157 5.9 -7.9°
Maximum altitude 05:09:35 81° 254° (WSW) 724 3.3 -7.1°
Drops below altitude 10° 05:14:28 10° 343° (NNW) 2,216 5.8 -6.4°
Sets 05:16:46 0° 345° (NNW) 3,151 6.6 -6.0°
